Date String (YYYY-MM-DD hh:mm:ss) UTC,Instrument flags,Ambient pressure (hPa),Sample flow (lpm),Bypass flow (lpm),Sample temperature (°C),Ambient temperature (°C),ASC tube jacket temperature (°C),LED temperature (°C),Box temperature (°C),Sample RH (%),Span deviation,Mass concentration (μg/m³),Mass concentration (μg/m³),Mass concentration (μg/m³)
DateTimeUTC,F1_M11,P_M11,Q1_M11,Q2_M11,T1_M11,T2_M11,T3_M11,T4_M11,T5_M11,U1_M11,ZSPAN_M11,X0_M11,X2_M11,X1_M11
2023-03-09 12:00:00,,0823.9,4.99,0.00,22.5,21.1,00.0,31.3,24.2,16.9,-000.5,0014.56,0010.31,0010.00
2023-03-09 12:01:00,,0823.8,5.00,0.00,22.5,21.0,00.0,31.2,24.1,16.8,-000.5,0014.57,0010.17,0009.86
2023-03-09 12:02:00,,0823.7,4.99,0.00,22.5,21.0,00.0,31.2,24.1,16.8,-000.3,0014.28,0009.98,0009.70
2023-03-09 12:03:00,,0823.7,5.01,0.00,22.5,20.9,00.0,31.2,24.1,16.7,-000.4,0014.07,0009.85,0009.58
2023-03-09 12:04:00,,0823.8,5.01,0.00,22.4,20.8,00.0,31.2,24.1,16.5,-000.3,0013.90,0009.72,0009.47
2023-03-09 12:05:00,,0823.8,5.00,0.00,22.4,20.7,00.0,31.2,24.1,16.4,-000.2,0013.90,0009.67,0009.39
2023-03-09 12:06:00,,0823.8,5.00,0.00,22.4,20.6,00.0,31.2,24.1,16.3,-000.2,0013.87,0009.66,0009.37
2023-03-09 12:07:00,,0823.7,4.99,0.00,22.4,20.5,00.0,31.2,24.0,16.3,-000.1,0013.80,0009.63,0009.34
2023-03-09 12:08:00,,0823.7,4.98,0.00,22.3,20.3,00.0,31.2,23.8,16.2,-000.1,0013.71,0009.53,0009.24
2023-03-09 12:09:00,,0823.8,5.00,0.00,22.2,20.0,00.0,31.1,23.6,16.3,-000.2,0013.60,0009.43,0009.14
2023-03-09 12:10:00,,0823.8,5.00,0.00,22.1,20.2,00.0,31.0,23.6,16.3,-000.4,0013.49,0009.33,0009.03
2023-03-09 12:11:00,,0823.7,5.00,0.00,22.2,21.3,00.0,31.0,23.9,16.3,-000.4,0013.50,0009.28,0008.95
2023-03-09 12:12:00,,0823.7,4.99,0.00,22.3,22.3,00.0,31.0,24.2,16.3,-000.3,0013.26,0009.23,0008.90
2023-03-09 12:13:00,,0823.7,5.00,0.00,22.4,22.2,00.0,31.1,24.2,16.2,-000.6,0013.24,0009.23,0008.88
2023-03-09 12:14:00,,0823.7,5.01,0.00,22.3,21.5,00.0,31.1,24.0,16.1,-000.7,0013.32,0009.23,0008.87
2023-03-09 12:15:00,,0823.8,5.01,0.00,22.2,20.9,00.0,31.0,23.7,16.3,-000.8,0013.39,0009.26,0008.87
2023-03-09 12:16:00,,0823.8,5.01,0.00,22.1,20.4,00.0,31.0,23.4,16.4,-000.8,0013.41,0009.30,0008.92
2023-03-09 12:17:00,,0823.8,4.99,0.00,22.0,20.0,00.0,31.0,23.3,16.5,-000.6,0013.41,0009.32,0008.95
2023-03-09 12:18:00,,0823.8,4.99,0.00,21.9,19.7,00.0,30.9,23.1,16.6,-000.5,0013.47,0009.37,0008.99
2023-03-09 12:19:00,,0823.8,5.01,0.00,21.7,19.5,00.0,30.9,23.0,16.7,-000.6,0013.54,0009.44,0009.07
2023-03-09 12:20:00,,0823.8,5.02,0.00,21.7,20.3,00.0,30.8,23.2,16.7,-000.5,0013.69,0009.53,0009.13
2023-03-09 12:21:00,,0823.8,5.02,0.00,21.9,21.5,00.0,30.8,23.6,16.6,-000.4,0013.92,0009.66,0009.23
2023-03-09 12:22:00,,0823.8,5.01,0.00,22.0,22.4,00.0,30.8,23.9,16.4,-000.3,0013.96,0009.73,0009.33
2023-03-09 12:23:00,,0823.8,5.03,0.00,22.1,22.4,00.0,30.8,23.9,16.3,-000.4,0014.08,0009.79,0009.38
2023-03-09 12:24:00,,0823.8,4.96,0.00,22.0,21.5,00.0,30.8,23.6,16.3,-000.1,0014.09,0009.79,0009.39
2023-03-09 12:25:00,,0823.8,5.00,0.00,21.9,20.8,00.0,30.8,23.3,16.5,-000.1,0014.05,0009.80,0009.42
2023-03-09 12:26:00,,0823.8,5.00,0.00,21.8,20.2,00.0,30.8,23.1,16.6,-000.1,0014.12,0009.88,0009.51
2023-03-09 12:27:00,,0823.8,5.00,0.00,21.7,19.8,00.0,30.7,22.9,16.8,-000.1,0014.22,0009.96,0009.60
2023-03-09 12:28:00,,0823.9,5.00,0.00,21.6,19.4,00.0,30.7,22.7,16.8,-000.1,0014.32,0010.03,0009.66
2023-03-09 12:29:00,,0824.0,5.00,0.00,21.4,19.1,00.0,30.6,22.6,16.9,-000.1,0014.35,0010.05,0009.71
2023-03-09 12:30:00,,0824.0,5.01,0.00,21.4,19.8,00.0,30.5,22.8,16.9,0000.0,0014.40,0010.09,0009.76
2023-03-09 12:31:00,,0824.0,4.97,0.00,21.5,21.1,00.0,30.5,23.2,16.9,0000.0,0014.57,0010.22,0009.88
2023-03-09 12:32:00,,0823.9,5.00,0.00,21.7,21.9,00.0,30.5,23.5,16.8,-000.0,0014.61,0010.30,0009.97
2023-03-09 12:33:00,,0824.0,4.98,0.00,21.8,22.1,00.0,30.5,23.6,16.6,-000.1,0014.76,0010.39,0010.05
2023-03-09 12:34:00,,0824.0,5.01,0.00,21.7,21.2,00.0,30.6,23.3,16.7,0000.1,0014.78,0010.46,0010.12
2023-03-09 12:35:00,,0823.9,5.00,0.00,21.6,20.4,00.0,30.5,22.9,16.8,0000.1,0014.92,0010.58,0010.24
2023-03-09 12:36:00,,0823.8,5.00,0.00,21.4,19.9,00.0,30.5,22.6,16.9,0000.2,0015.31,0010.67,0010.32
2023-03-09 12:37:00,,0823.8,5.01,0.00,21.3,19.4,00.0,30.4,22.4,17.0,0000.3,0015.80,0010.68,0010.32
2023-03-09 12:38:00,,0823.8,5.00,0.00,21.2,19.3,00.0,30.4,22.4,17.2,0000.3,0015.94,0010.77,0010.38
2023-03-09 12:39:00,,0823.8,5.02,0.00,21.3,20.5,00.0,30.3,22.8,17.1,0000.3,0016.08,0010.84,0010.44
2023-03-09 12:40:00,,0823.8,4.98,0.00,21.4,21.7,00.0,30.3,23.2,17.0,0000.1,0016.18,0010.89,0010.47
2023-03-09 12:41:00,,0823.7,5.00,0.00,21.6,22.4,00.0,30.4,23.5,16.8,0000.1,0016.25,0010.88,0010.46
2023-03-09 12:42:00,,0823.7,5.02,0.00,21.6,21.7,00.0,30.4,23.3,16.7,0000.2,0016.17,0010.73,0010.33
2023-03-09 12:43:00,,0823.8,5.02,0.00,21.6,21.0,00.0,30.4,23.1,16.7,0000.3,0015.85,0010.44,0010.02
2023-03-09 12:44:00,,0823.8,5.00,0.00,21.5,20.4,00.0,30.4,22.9,16.8,0000.3,0015.55,0010.18,0009.76
2023-03-09 12:45:00,,0823.8,5.01,0.00,21.4,19.9,00.0,30.4,22.7,16.9,0000.3,0015.34,0010.01,0009.60
2023-03-09 12:46:00,,0823.8,5.01,0.00,21.3,19.5,00.0,30.3,22.5,16.9,0000.1,0015.17,0009.86,0009.47
2023-03-09 12:47:00,,0823.8,5.01,0.00,21.2,19.2,00.0,30.3,22.5,17.0,0000.0,0014.57,0009.58,0009.19
2023-03-09 12:48:00,,0823.9,5.01,0.00,21.1,19.1,00.0,30.2,22.4,17.1,-000.0,0014.00,0009.45,0009.05
2023-03-09 12:49:00,,0823.9,5.01,0.00,21.2,20.3,00.0,30.2,22.8,17.1,-000.1,0013.78,0009.28,0008.90
2023-03-09 12:50:00,,0824.0,5.00,0.00,21.4,21.6,00.0,30.2,23.2,16.9,-000.2,0013.48,0009.02,0008.63
2023-03-09 12:51:00,,0823.9,4.99,0.00,21.5,22.6,00.0,30.2,23.5,16.8,-000.0,0013.06,0008.70,0008.31
2023-03-09 12:52:00,,0824.0,4.99,0.00,21.6,22.1,00.0,30.3,23.4,16.6,-000.1,0012.47,0008.19,0007.79
2023-03-09 12:53:00,,0824.0,4.99,0.00,21.6,21.3,00.0,30.3,23.2,16.6,-000.1,0011.87,0007.79,0007.40
2023-03-09 12:54:00,,0824.1,5.00,0.00,21.5,20.6,00.0,30.3,23.0,16.7,-000.4,0011.52,0007.52,0007.15
2023-03-09 12:55:00,,0824.1,5.00,0.00,21.4,20.1,00.0,30.3,22.8,16.8,-000.3,0011.32,0007.21,0006.86
2023-03-09 12:56:00,,0824.1,5.00,0.00,21.4,19.8,00.0,30.3,22.7,16.8,-000.4,0011.30,0006.86,0006.53
2023-03-09 12:57:00,,0824.1,4.99,0.00,21.3,19.5,00.0,30.2,22.6,16.8,-000.5,0010.72,0006.39,0006.06
2023-03-09 12:58:00,,0824.1,4.99,0.00,21.2,19.2,00.0,30.2,22.5,16.8,-000.4,0010.37,0006.02,0005.69
2023-03-09 12:59:00,,0824.2,5.02,0.00,21.2,19.5,00.0,30.2,22.6,16.8,-000.5,0009.69,0005.47,0005.17
